Time,TemperatureF,DewpointF,PressureIn,WindDirection,WindDirectionDegrees,WindSpeedMPH,WindSpeedGustMPH,Humidity,HourlyPrecipIn,Conditions,Clouds,dailyrainin,SoftwareType,DateUTC
2013-02-26 00:01:00,30.0,23.0,-100.00,ESE,122,1.0,8.0,71,0.00,,,-99.99,,2013-02-26 05:01:00,
2013-02-26 00:12:00,30.0,23.0,-100.00,SW,217,1.0,8.0,71,0.00,,,-99.99,,2013-02-26 05:12:00,
2013-02-26 00:22:00,30.0,23.0,-100.00,WSW,248,1.0,8.0,71,0.00,,,-99.99,,2013-02-26 05:22:00,
2013-02-26 00:32:00,31.0,23.0,-100.00,West,269,2.0,8.0,66,0.00,,,-99.99,,2013-02-26 05:32:00,
2013-02-26 00:43:00,31.0,21.0,-100.00,West,276,1.0,8.0,64,0.00,,,-99.99,,2013-02-26 05:43:00,
2013-02-26 00:52:00,33.0,21.0,-100.00,SW,235,3.0,8.0,62,0.00,,,-99.99,,2013-02-26 05:52:00,
2013-02-26 01:02:00,32.0,21.0,-100.00,WSW,248,3.0,8.0,62,0.00,,,-99.99,,2013-02-26 06:02:00,
2013-02-26 01:11:00,32.0,21.0,-100.00,SW,214,2.0,8.0,63,0.00,,,-99.99,,2013-02-26 06:11:00,
2013-02-26 01:22:00,33.0,23.0,-100.00,SW,232,2.0,8.0,62,0.00,,,-99.99,,2013-02-26 06:22:00,
2013-02-26 01:32:00,33.0,21.0,-100.00,WSW,254,2.0,8.0,60,0.00,,,-99.99,,2013-02-26 06:32:00,
2013-02-26 01:42:00,33.0,21.0,-100.00,SSW,192,2.0,8.0,59,0.00,,,-99.99,,2013-02-26 06:42:00,
2013-02-26 01:52:00,33.0,21.0,-100.00,WSW,240,2.0,8.0,60,0.00,,,-99.99,,2013-02-26 06:52:00,
2013-02-26 02:01:00,33.0,21.0,-100.00,West,265,2.0,8.0,59,0.00,,,-99.99,,2013-02-26 07:01:00,
2013-02-26 02:11:00,32.0,21.0,-100.00,WSW,256,2.0,8.0,60,0.00,,,-99.99,,2013-02-26 07:11:00,
2013-02-26 02:22:00,33.0,21.0,-100.00,WSW,251,1.0,8.0,60,0.00,,,-99.99,,2013-02-26 07:22:00,
2013-02-26 02:32:00,33.0,21.0,-100.00,WSW,242,1.0,8.0,59,0.00,,,-99.99,,2013-02-26 07:32:00,
2013-02-26 02:42:00,33.0,21.0,-100.00,WSW,242,1.0,1.0,59,0.00,,,-99.99,,2013-02-26 07:42:00,
2013-02-26 02:52:00,33.0,21.0,-100.00,SW,232,1.0,2.0,59,0.00,,,-99.99,,2013-02-26 07:52:00,
2013-02-26 03:02:00,33.0,21.0,-100.00,WSW,237,2.0,2.0,59,0.00,,,-99.99,,2013-02-26 08:02:00,
2013-02-26 03:11:00,33.0,21.0,-100.00,SSW,211,2.0,2.0,59,0.00,,,-99.99,,2013-02-26 08:11:00,
2013-02-26 03:21:00,33.0,21.0,-100.00,WNW,295,1.0,2.0,59,0.00,,,-99.99,,2013-02-26 08:21:00,
2013-02-26 03:32:00,33.0,21.0,-100.00,West,271,2.0,2.0,59,0.00,,,-99.99,,2013-02-26 08:32:00,
2013-02-26 03:42:00,33.0,21.0,-100.00,WNW,283,2.0,2.0,60,0.00,,,-99.99,,2013-02-26 08:42:00,
2013-02-26 03:52:00,32.0,21.0,-100.00,WNW,292,1.0,2.0,62,0.00,,,-99.99,,2013-02-26 08:52:00,
2013-02-26 04:02:00,33.0,21.0,-100.00,West,262,2.0,2.0,59,0.00,,,-99.99,,2013-02-26 09:02:00,
2013-02-26 04:11:00,34.0,21.0,-100.00,West,280,2.0,4.0,59,0.00,,,-99.99,,2013-02-26 09:11:00,
2013-02-26 04:21:00,34.0,21.0,-100.00,SW,217,2.0,6.0,58,0.00,,,-99.99,,2013-02-26 09:21:00,
2013-02-26 04:32:00,33.0,21.0,-100.00,WSW,247,4.0,6.0,58,0.00,,,-99.99,,2013-02-26 09:32:00,
2013-02-26 04:43:00,33.0,21.0,-100.00,WSW,237,4.0,6.0,58,0.00,,,-99.99,,2013-02-26 09:43:00,
2013-02-26 04:51:00,33.0,19.0,-100.00,WSW,237,5.0,6.0,56,0.00,,,-99.99,,2013-02-26 09:51:00,
2013-02-26 05:01:00,33.0,19.0,-100.00,SW,221,5.0,6.0,56,0.00,,,-99.99,,2013-02-26 10:01:00,
2013-02-26 05:11:00,33.0,21.0,-100.00,West,266,3.0,6.0,58,0.00,,,-99.99,,2013-02-26 10:11:00,
2013-02-26 05:21:00,34.0,21.0,-100.00,SW,218,4.0,6.0,58,0.00,,,-99.99,,2013-02-26 10:21:00,
2013-02-26 05:32:00,33.0,19.0,-100.00,WSW,254,4.0,6.0,56,0.00,,,-99.99,,2013-02-26 10:32:00,
2013-02-26 05:42:00,33.0,19.0,-100.00,West,264,5.0,6.0,56,0.00,,,-99.99,,2013-02-26 10:42:00,
2013-02-26 05:52:00,33.0,19.0,-100.00,SW,218,3.0,6.0,56,0.00,,,-99.99,,2013-02-26 10:52:00,
2013-02-26 06:01:00,33.0,21.0,-100.00,West,266,3.0,6.0,58,0.00,,,-99.99,,2013-02-26 11:01:00,
2013-02-26 06:12:00,33.0,21.0,-100.00,West,262,3.0,6.0,58,0.00,,,-99.99,,2013-02-26 11:12:00,
2013-02-26 06:22:00,33.0,21.0,-100.00,SW,221,4.0,6.0,58,0.00,,,-99.99,,2013-02-26 11:22:00,
2013-02-26 06:32:00,33.0,21.0,-100.00,SSW,199,4.0,6.0,58,0.00,,,-99.99,,2013-02-26 11:32:00,
2013-02-26 06:42:00,34.0,21.0,-100.00,SW,227,4.0,6.0,56,0.00,,,-99.99,,2013-02-26 11:42:00,
2013-02-26 06:52:00,34.0,21.0,-100.00,West,278,2.0,6.0,56,0.00,,,-99.99,,2013-02-26 11:52:00,
2013-02-26 07:02:00,34.0,21.0,-100.00,West,265,2.0,6.0,56,0.00,,,-99.99,,2013-02-26 12:02:00,
2013-02-26 07:11:00,34.0,21.0,-100.00,WNW,290,2.0,6.0,56,0.00,,,-99.99,,2013-02-26 12:11:00,
2013-02-26 07:22:00,34.0,21.0,-100.00,North,357,2.0,6.0,55,0.00,,,-99.99,,2013-02-26 12:22:00,
2013-02-26 07:32:00,34.0,21.0,-100.00,NW,313,1.0,6.0,55,0.00,,,-99.99,,2013-02-26 12:32:00,
2013-02-26 07:42:00,34.0,21.0,-100.00,SSW,193,2.0,6.0,56,0.00,,,-99.99,,2013-02-26 12:42:00,
2013-02-26 07:52:00,34.0,21.0,-100.00,WSW,248,2.0,6.0,55,0.00,,,-99.99,,2013-02-26 12:52:00,
2013-02-26 08:02:00,34.0,21.0,-100.00,West,269,3.0,6.0,55,0.00,,,-99.99,,2013-02-26 13:02:00,
2013-02-26 08:11:00,34.0,21.0,-100.00,WSW,238,2.0,6.0,55,0.00,,,-99.99,,2013-02-26 13:11:00,
2013-02-26 08:22:00,34.0,21.0,-100.00,SW,217,2.0,6.0,54,0.00,,,-99.99,,2013-02-26 13:22:00,
2013-02-26 08:32:00,35.0,21.0,-100.00,SW,231,2.0,6.0,55,0.00,,,-99.99,,2013-02-26 13:32:00,
2013-02-26 08:42:00,35.0,21.0,-100.00,SW,232,3.0,6.0,54,0.00,,,-99.99,,2013-02-26 13:42:00,
2013-02-26 08:52:00,35.0,21.0,-100.00,WSW,240,3.0,6.0,54,0.00,,,-99.99,,2013-02-26 13:52:00,
2013-02-26 09:01:00,36.0,21.0,-100.00,West,266,2.0,6.0,54,0.00,,,-99.99,,2013-02-26 14:01:00,
2013-02-26 09:11:00,35.0,21.0,-100.00,SW,232,4.0,6.0,53,0.00,,,-99.99,,2013-02-26 14:11:00,
2013-02-26 09:22:00,37.0,23.0,-100.00,WSW,248,4.0,6.0,53,0.00,,,-99.99,,2013-02-26 14:22:00,
2013-02-26 09:32:00,37.0,21.0,-100.00,WSW,238,4.0,6.0,53,0.00,,,-99.99,,2013-02-26 14:32:00,
2013-02-26 09:42:00,37.0,21.0,-100.00,SW,225,4.0,6.0,51,0.00,,,-99.99,,2013-02-26 14:42:00,
2013-02-26 09:52:00,37.0,21.0,-100.00,WSW,248,4.0,6.0,51,0.00,,,-99.99,,2013-02-26 14:52:00,
2013-02-26 10:02:00,37.0,21.0,-100.00,WNW,286,3.0,6.0,51,0.00,,,-99.99,,2013-02-26 15:02:00,
2013-02-26 10:11:00,37.0,21.0,-100.00,West,265,4.0,6.0,51,0.00,,,-99.99,,2013-02-26 15:11:00,
2013-02-26 10:22:00,37.0,27.0,-100.00,SW,224,3.0,6.0,62,0.00,,,-99.99,,2013-02-26 15:22:00,
2013-02-26 10:32:00,36.0,27.0,-100.00,WSW,247,2.0,6.0,69,0.00,,,-99.99,,2013-02-26 15:32:00,
2013-02-26 10:42:00,35.0,28.0,-100.00,West,271,2.0,6.0,72,0.00,,,-99.99,,2013-02-26 15:42:00,
2013-02-26 10:52:00,35.0,28.0,-100.00,SW,230,3.0,6.0,73,0.00,,,-99.99,,2013-02-26 15:52:00,
2013-02-26 11:02:00,35.0,28.0,-100.00,SW,234,4.0,6.0,75,0.00,,,-99.99,,2013-02-26 16:02:00,
2013-02-26 11:11:00,35.0,30.0,-100.00,SW,231,3.0,6.0,77,0.00,,,-99.99,,2013-02-26 16:11:00,
2013-02-26 11:22:00,35.0,30.0,-100.00,SW,224,6.0,8.0,77,0.00,,,-99.99,,2013-02-26 16:22:00,
2013-02-26 11:32:00,35.0,30.0,-100.00,SW,220,4.0,8.0,77,0.00,,,-99.99,,2013-02-26 16:32:00,
2013-02-26 11:42:00,35.0,30.0,-100.00,WNW,285,4.0,8.0,78,0.00,,,-99.99,,2013-02-26 16:42:00,
2013-02-26 11:52:00,34.0,30.0,-100.00,WNW,282,5.0,8.0,80,0.00,,,-99.99,,2013-02-26 16:52:00,
2013-02-26 12:01:00,35.0,32.0,-100.00,WSW,248,4.0,8.0,82,0.00,,,-99.99,,2013-02-26 17:01:00,
2013-02-26 12:11:00,35.0,32.0,-100.00,SSW,210,4.0,8.0,82,0.00,,,-99.99,,2013-02-26 17:11:00,
2013-02-26 12:22:00,35.0,32.0,-100.00,WSW,258,6.0,8.0,84,0.00,,,-99.99,,2013-02-26 17:22:00,
2013-02-26 12:32:00,36.0,32.0,-100.00,SW,234,6.0,8.0,84,0.00,,,-99.99,,2013-02-26 17:32:00,
2013-02-26 12:42:00,36.0,32.0,-100.00,West,269,8.0,10.0,84,0.00,,,-99.99,,2013-02-26 17:42:00,
2013-02-26 12:52:00,36.0,32.0,-100.00,SW,217,8.0,10.0,85,0.00,,,-99.99,,2013-02-26 17:52:00,
2013-02-26 13:02:00,36.0,32.0,-100.00,SW,228,7.0,10.0,85,0.00,,,-99.99,,2013-02-26 18:02:00,
2013-02-26 13:12:00,36.0,32.0,-100.00,SSW,204,7.0,10.0,86,0.00,,,-99.99,,2013-02-26 18:12:00,
2013-02-26 13:21:00,36.0,32.0,-100.00,West,266,6.0,10.0,86,0.00,,,-99.99,,2013-02-26 18:21:00,
2013-02-26 13:32:00,36.0,32.0,-100.00,West,265,9.0,12.0,88,0.00,,,-99.99,,2013-02-26 18:32:00,
2013-02-26 13:42:00,37.0,32.0,-100.00,West,280,7.0,12.0,88,0.00,,,-99.99,,2013-02-26 18:42:00,
2013-02-26 13:52:00,37.0,32.0,-100.00,WSW,254,6.0,12.0,88,0.00,,,-99.99,,2013-02-26 18:52:00,
2013-02-26 14:01:00,36.0,32.0,-100.00,West,280,7.0,12.0,89,0.00,,,-99.99,,2013-02-26 19:01:00,
2013-02-26 14:11:00,35.0,32.0,-100.00,NW,304,7.0,12.0,90,0.00,,,-99.99,,2013-02-26 19:11:00,
2013-02-26 14:22:00,36.0,32.0,-100.00,West,265,8.0,12.0,91,0.00,,,-99.99,,2013-02-26 19:22:00,
2013-02-26 14:32:00,36.0,32.0,-100.00,SW,227,7.0,12.0,91,0.00,,,-99.99,,2013-02-26 19:32:00,
2013-02-26 14:42:00,35.0,32.0,-100.00,West,275,9.0,12.0,93,0.00,,,-99.99,,2013-02-26 19:42:00,
2013-02-26 14:52:00,36.0,32.0,-100.00,West,261,7.0,12.0,91,0.00,,,-99.99,,2013-02-26 19:52:00,
2013-02-26 15:01:00,36.0,32.0,-100.00,SW,216,7.0,12.0,91,0.00,,,-99.99,,2013-02-26 20:01:00,
2013-02-26 15:11:00,35.0,32.0,-100.00,NW,313,6.0,12.0,93,0.00,,,-99.99,,2013-02-26 20:11:00,
2013-02-26 15:22:00,35.0,32.0,-100.00,NW,307,6.0,12.0,94,0.00,,,-99.99,,2013-02-26 20:22:00,
2013-02-26 15:32:00,35.0,32.0,-100.00,WNW,300,11.0,17.0,94,0.00,,,-99.99,,2013-02-26 20:32:00,
2013-02-26 15:41:00,34.0,32.0,-100.00,WNW,289,6.0,17.0,95,0.00,,,-99.99,,2013-02-26 20:41:00,
2013-02-26 15:52:00,35.0,34.0,-100.00,West,259,10.0,17.0,98,0.00,,,-99.99,,2013-02-26 20:52:00,
2013-02-26 16:01:00,35.0,34.0,-100.00,SW,230,11.0,17.0,98,0.00,,,-99.99,,2013-02-26 21:01:00,
2013-02-26 16:11:00,35.0,34.0,-100.00,West,268,7.0,17.0,98,0.00,,,-99.99,,2013-02-26 21:11:00,
2013-02-26 16:21:00,36.0,34.0,-100.00,WNW,303,9.0,17.0,97,0.00,,,-99.99,,2013-02-26 21:21:00,
2013-02-26 16:31:00,35.0,34.0,-100.00,WNW,302,7.0,17.0,97,0.00,,,-99.99,,2013-02-26 21:31:00,
2013-02-26 16:41:00,36.0,34.0,-100.00,NNW,330,9.0,17.0,95,0.00,,,-99.99,,2013-02-26 21:41:00,
2013-02-26 16:51:00,36.0,34.0,-100.00,WNW,289,9.0,17.0,95,0.00,,,-99.99,,2013-02-26 21:51:00,
2013-02-26 17:01:00,36.0,34.0,-100.00,SSW,208,8.0,17.0,95,0.00,,,-99.99,,2013-02-26 22:01:00,
2013-02-26 17:11:00,37.0,36.0,-100.00,West,275,7.0,17.0,95,0.00,,,-99.99,,2013-02-26 22:11:00,
2013-02-26 17:21:00,37.0,36.0,-100.00,West,275,7.0,17.0,95,0.00,,,-99.99,,2013-02-26 22:21:00,
2013-02-26 17:32:00,37.0,36.0,-100.00,West,275,7.0,17.0,95,0.00,,,-99.99,,2013-02-26 22:32:00,
2013-02-26 17:42:00,37.0,36.0,-100.00,West,275,7.0,17.0,95,0.00,,,-99.99,,2013-02-26 22:42:00,